Regional Weather Roundup
Issued by NWS

Home | Current Version | Previous Version | Graphics & Text | Print | Product List | Glossary On
Versions: 1 2 3 4 5 6 7 8 9 10 11 12 13 14 15 16 17 18 19 20 21 22 23 24 25 26 27 28 29 30 31 32 33 34 35 36 37 38 39 40 41 42 43 44 45 46 47 48 49 50
237
ASUS45 KCYS 212210
RWRWY

WYOMING REGIONAL WEATHER ROUNDUP
NATIONAL WEATHER SERVICE CHEYENNE WY
400 PM MDT MON AUG 21 2017

NOTE:  "FAIR" INDICATES FEW OR NO CLOUDS BELOW 12,000 FEET
WITH NO SIGNIFICANT WEATHER AND/OR OBSTRUCTIONS TO VISIBILITY.

WYZ001-212300-
YELLOWSTONE NATIONAL PARK

CITY           SKY/WX    TMP DP  RH WIND       PRES   REMARKS
LK YELLOWSTONE   N/A     66  40  38 VRB5      30.37S
W YELLOWSTONE  NOT AVBL

$$
WYZ002>013-054>058-071-098>099-212300-
NORTHERN WYOMING

CITY           SKY/WX    TMP DP  RH WIND       PRES   REMARKS
JACKSON        FAIR      78  23  13 W8        30.26F
CODY           FAIR      74  35  24 NE10      30.21F
GREYBULL       FAIR      84  29  13 N7        30.11F
WORLAND        FAIR      81  36  19 NE5       30.13F
SHERIDAN       FAIR      80  31  16 E5        30.17F
BUFFALO        FAIR      78  30  17 NE5       30.23S
GILLETTE       FAIR      79  31  17 N13G18    30.18S
HULETT         FAIR      75  34  22 N13       30.20S
NEWCASTLE      FAIR      79  28  15 N14G20    30.16S

$$
WYZ014>020-022>026-101>103-212300-
CENTRAL WYOMING

CITY           SKY/WX    TMP DP  RH WIND       PRES   REMARKS
BIG PINEY      FAIR      82  28  14 NW14G20   30.29F
PINEDALE       FAIR      79  28  15 W13G25    30.30S
DUBOIS         FAIR      79  10   7 N15G24    30.26S
LANDER           N/A    N/A N/A N/A MISG      30.16F
RIVERTON       FAIR      81  34  18 E7        30.17F
CASPER         FAIR      81  35  19 VRB7      30.20F
DOUGLAS        FAIR      79  39  23 NE10G16   30.20F

$$
WYZ021-027>030-104>119-212300-
SOUTHERN WYOMING

CITY           SKY/WX    TMP DP  RH WIND       PRES   REMARKS
EVANSTON       PTSUNNY   78  33  19 N24G33    30.31S
KEMMERER         N/A    N/A N/A N/A W15G21    30.32F
FORT BRIDGER   MOCLDY    85  29  13 N12       30.31F
ROCK SPRINGS   FAIR      83  26  12 W14G23    30.26F
RAWLINS        FAIR      83  28  13 NW16G23   30.25F
SARATOGA       FAIR      79  32  18 N5        30.28F
LARAMIE        PTSUNNY   77  32  19 N15G26    30.28F
CHEYENNE       FAIR      78  38  23 NE10G21   30.24S
TORRINGTON     FAIR      83  49  30 E13G20    30.12S
PINE BLUFFS    FAIR      79  45  29 N16       30.19R

$$




USA.gov is the U.S. government's official web portal to all federal, state and local government web resources and services.